This is the latest recevied weather packets stored in our database for station/object N5RPG. If no packets are shown the sender has not sent any weather packets the latest 10 day(s).
| Time | Temp. | Humidity | Pressure | Rain* | Wind** | Luminosity | Snow |
|---|---|---|---|---|---|---|---|
| 1778024922 | 28.89° C | 68% | 1006.7 hPa | 0 mm | - | 97 W/m² | - |
| 1778024620 | 28.89° C | 68% | 1006.8 hPa | 0 mm | - | 129 W/m² | - |
| 1778024317 | 28.89° C | 68% | 1006.5 hPa | 0 mm | - | 130 W/m² | - |
| 1778024015 | 28.89° C | 67% | 1006.6 hPa | 0 mm | - | 135 W/m² | - |
| 1778023712 | 29.44° C | 66% | 1006.6 hPa | 0 mm | - | 104 W/m² | - |
| 1778023410 | 29.44° C | 66% | 1006.4 hPa | 0 mm | - | 125 W/m² | - |
| 1778023106 | 30° C | 65% | 1006.3 hPa | 0 mm | - | 240 W/m² | - |
| 1778022804 | 29.44° C | 66% | 1006.5 hPa | 0 mm | - | 235 W/m² | - |
| 1778022502 | 30° C | 65% | 1006.3 hPa | 0 mm | - | 218 W/m² | - |
| 1778022198 | 29.44° C | 66% | 1006.3 hPa | 0 mm | - | 228 W/m² | - |
| 1778021895 | 29.44° C | 66% | 1006.3 hPa | 0 mm | - | 192 W/m² | - |
| 1778021592 | 30° C | 63% | 1006.2 hPa | 0 mm | - | 65 W/m² | - |
| 1778021287 | 30.56° C | 63% | 1006.2 hPa | 0 mm | - | 301 W/m² | - |
| 1778020986 | 30.56° C | 63% | 1006.1 hPa | 0 mm | - | 277 W/m² | - |
| 1778020683 | 30.56° C | 62% | 1006.1 hPa | 0 mm | - | 403 W/m² | - |
| 1778020379 | 30.56° C | 63% | 1006.3 hPa | 0 mm | - | 291 W/m² | - |
| 1778020075 | 30.56° C | 62% | 1006.2 hPa | 0 mm | - | 168 W/m² | - |
| 1778019771 | 30.56° C | 62% | 1006.3 hPa | 0 mm | - | 441 W/m² | - |
| 1778019469 | 30° C | 61% | 1006.5 hPa | 0 mm | - | 510 W/m² | - |
| 1778019165 | 30° C | 62% | 1006.4 hPa | 0 mm | - | 378 W/m² | - |
| 1778018862 | 30° C | 62% | 1006.3 hPa | 0 mm | - | 433 W/m² | - |
| 1778018559 | 30° C | 62% | 1006.5 hPa | 0 mm | - | 321 W/m² | - |
| 1778018257 | 31.11° C | 62% | 1006.5 hPa | 0 mm | - | 401 W/m² | - |
| 1778017955 | 30.56° C | 62% | 1006.4 hPa | 0 mm | - | 604 W/m² | - |
| 1778017653 | 30° C | 63% | 1006.5 hPa | 0 mm | - | 454 W/m² | - |
* Rain latest hour (hover to see other rain measurements)
** Current wind speed in m/s (hover to see current wind gust speed)